ACA896 CYYZ-LGAV

Flight info

Callsign ACA896
Flight time N/A
Altitude 33000
Route VERDO7 LORKA Q907 MIILS N285B NICSO/M084F340 NATS BEXET/N0479F350 DCT DIRUM DCT MORAG DCT NUCHU L607 BIG UL9 KONAN DCT KOK DCT RITAX DCT BANUX DCT BABEG DCT KUMOM DCT DEVUL/N0476F370 DCT LIKVI DCT REMSO DCT MEDUX UM867 KOGAT DCT TALAS UM749 ROPOX ROPO1Q
Aircraft B77W/H-SDE1E2E3FGHIJ2J3J4J5M1RWXY/LB1D1

Departure

Time 2026-05-05 01:13
Airport Toronto Pearson International Airport (CYYZ)

Arrival

Time N/A
Airport Athens Eleftherios Venizelos International Airport (LGAV)
Time Latitude Longitude Altitude Speed Heading
2026-05-05 00:34 43.67650 -79.61387 568 ft 0 kts 59°
2026-05-05 00:59 43.67641 -79.61406 575 ft 4 kts 56°
2026-05-05 01:00 43.67626 -79.61436 575 ft 4 kts 54°
2026-05-05 01:00 43.67611 -79.61467 574 ft 4 kts 70°
2026-05-05 01:00 43.67608 -79.61498 570 ft 4 kts 98°
2026-05-05 01:00 43.67618 -79.61529 572 ft 4 kts 138°
2026-05-05 01:01 43.67638 -79.61553 573 ft 4 kts 131°
2026-05-05 01:01 43.67654 -79.61582 575 ft 4 kts 128°
2026-05-05 01:01 43.67672 -79.61600 575 ft 4 kts 172°
2026-05-05 01:01 43.67694 -79.61596 575 ft 4 kts 228°
2026-05-05 01:02 43.67709 -79.61569 575 ft 1 kts 226°
2026-05-05 01:02 43.67713 -79.61564 575 ft 0 kts 226°
2026-05-05 01:05 43.67704 -79.61578 575 ft 3 kts 226°
2026-05-05 01:06 43.67689 -79.61599 575 ft 3 kts 226°
2026-05-05 01:06 43.67674 -79.61620 575 ft 3 kts 226°
2026-05-05 01:06 43.67655 -79.61646 576 ft 6 kts 222°
2026-05-05 01:06 43.67619 -79.61691 577 ft 9 kts 220°
2026-05-05 01:07 43.67568 -79.61740 578 ft 9 kts 200°
2026-05-05 01:07 43.67513 -79.61709 577 ft 10 kts 135°
2026-05-05 01:07 43.67433 -79.61601 575 ft 21 kts 136°
2026-05-05 01:07 43.67327 -79.61463 575 ft 21 kts 137°
2026-05-05 01:08 43.67255 -79.61369 574 ft 7 kts 137°
2026-05-05 01:08 43.67219 -79.61325 574 ft 7 kts 137°
2026-05-05 01:08 43.67184 -79.61277 574 ft 7 kts 135°
2026-05-05 01:08 43.67148 -79.61230 574 ft 7 kts 132°
2026-05-05 01:09 43.67142 -79.61160 572 ft 8 kts 66°
2026-05-05 01:09 43.67188 -79.61096 571 ft 13 kts 46°
2026-05-05 01:09 43.67274 -79.60973 570 ft 24 kts 46°
2026-05-05 01:09 43.67392 -79.60801 571 ft 25 kts 46°
2026-05-05 01:10 43.67510 -79.60630 573 ft 25 kts 46°
2026-05-05 01:10 43.67628 -79.60458 574 ft 25 kts 46°
2026-05-05 01:10 43.67745 -79.60288 569 ft 25 kts 46°
2026-05-05 01:10 43.67862 -79.60117 571 ft 25 kts 46°
2026-05-05 01:11 43.67976 -79.59952 571 ft 17 kts 45°
2026-05-05 01:11 43.68023 -79.59823 569 ft 16 kts 114°
2026-05-05 01:11 43.67943 -79.59713 568 ft 16 kts 149°
2026-05-05 01:11 43.67887 -79.59750 573 ft 9 kts 229°
2026-05-05 01:12 43.67831 -79.59835 573 ft 21 kts 227°
2026-05-05 01:12 43.67606 -79.60157 572 ft 85 kts 226°
2026-05-05 01:12 43.67010 -79.61021 578 ft 162 kts 226°
2026-05-05 01:12 43.66206 -79.62190 792 ft 194 kts 223°
2026-05-05 01:13 43.65219 -79.63535 1584 ft 199 kts 221°
2026-05-05 01:13 43.64297 -79.64766 2872 ft 181 kts 225°
2026-05-05 01:13 43.63351 -79.66055 3154 ft 202 kts 225°
2026-05-05 01:13 43.62322 -79.67452 3623 ft 214 kts 225°
2026-05-05 01:14 43.61220 -79.68933 4118 ft 227 kts 225°
2026-05-05 01:14 43.60033 -79.70409 4671 ft 236 kts 214°
2026-05-05 01:14 43.58442 -79.71111 5274 ft 250 kts 186°
2026-05-05 01:14 43.56689 -79.70603 5921 ft 268 kts 160°
2026-05-05 01:15 43.55149 -79.69125 6566 ft 284 kts 139°
2026-05-05 01:15 43.53939 -79.66837 7006 ft 295 kts 128°
2026-05-05 01:15 43.52845 -79.64405 6987 ft 299 kts 128°
2026-05-05 01:15 43.51739 -79.61982 6999 ft 298 kts 129°
2026-05-05 01:16 43.50763 -79.59481 6984 ft 299 kts 110°
2026-05-05 01:16 43.50645 -79.56607 7290 ft 307 kts 82°
2026-05-05 01:16 43.51167 -79.53715 7780 ft 316 kts 75°
2026-05-05 01:16 43.51758 -79.50770 8407 ft 321 kts 75°
2026-05-05 01:17 43.52345 -79.47788 9113 ft 324 kts 75°
2026-05-05 01:17 43.52928 -79.44779 9774 ft 327 kts 75°
2026-05-05 01:17 43.53327 -79.42770 10176 ft 328 kts 72°
2026-05-05 01:17 43.54183 -79.39788 10538 ft 343 kts 64°
2026-05-05 01:18 43.55289 -79.36757 10723 ft 365 kts 61°
2026-05-05 01:18 43.56517 -79.33571 10893 ft 387 kts 60°
2026-05-05 01:18 43.57809 -79.30215 11161 ft 405 kts 61°
2026-05-05 01:18 43.59126 -79.26726 11727 ft 415 kts 61°
2026-05-05 01:19 43.60450 -79.23154 12405 ft 420 kts 62°
2026-05-05 01:19 43.61776 -79.19527 13197 ft 424 kts 62°
2026-05-05 01:19 43.63100 -79.15877 13921 ft 428 kts 62°
2026-05-05 01:19 43.64390 -79.12304 14562 ft 432 kts 62°
2026-05-05 01:20 43.65737 -79.08563 15218 ft 437 kts 62°
2026-05-05 01:20 43.67051 -79.04911 15854 ft 441 kts 62°
2026-05-05 01:20 43.68421 -79.01096 16521 ft 446 kts 62°
2026-05-05 01:20 43.69803 -78.97246 17188 ft 450 kts 62°
2026-05-05 01:21 43.71206 -78.93332 17787 ft 456 kts 62°
2026-05-05 01:21 43.72619 -78.89384 18339 ft 461 kts 62°
2026-05-05 01:21 43.74047 -78.85391 18932 ft 464 kts 62°
2026-05-05 01:21 43.75481 -78.81376 19545 ft 467 kts 62°
2026-05-05 01:22 43.76922 -78.77333 20096 ft 470 kts 62°
2026-05-05 01:22 43.78365 -78.73251 20688 ft 474 kts 62°
2026-05-05 01:22 43.79803 -78.69119 21230 ft 478 kts 62°
2026-05-05 01:22 43.81241 -78.64954 21788 ft 481 kts 62°
2026-05-05 01:23 43.82684 -78.60760 22338 ft 484 kts 62°
2026-05-05 01:23 43.84139 -78.56530 22864 ft 488 kts 62°
2026-05-05 01:23 43.85608 -78.52258 23320 ft 493 kts 62°
2026-05-05 01:23 43.87076 -78.47989 23665 ft 499 kts 62°
2026-05-05 01:24 43.88570 -78.43638 24115 ft 501 kts 62°
2026-05-05 01:24 43.90069 -78.39267 24602 ft 503 kts 62°
2026-05-05 01:24 43.91570 -78.34883 25039 ft 505 kts 62°
2026-05-05 01:24 43.93100 -78.30410 25450 ft 508 kts 62°